Location: Wildlife_Club
(35.6000°N, 81.4330°W)
Time: 15:24:45
(UTC-05:00)

Iridium 56 - Visible Passes

Search period start: 22 January 2017 00:00
Search period end: 01 February 2017 00:00
Orbit: 776 x 779 km, 86.4° (Epoch: 22 January)

Date Brightness Start Highest point End Pass type
(mag) Time Alt. Az. Time Alt. Az. Time Alt. Az.
22 Jan 8.2 06:22:58 10° NNE 06:26:43 20° E 06:30:27 10° SE visible
22 Jan 5.7 19:15:38 10° SSE 19:20:34 44° E 19:22:37 30° NE visible
22 Jan 8.0 20:58:02 10° WSW 21:01:27 18° WNW 21:03:17 15° NW visible
23 Jan 6.5 18:43:11 10° SE 18:47:14 23° E 18:51:18 10° NNE visible
23 Jan 7.1 20:23:04 10° SW 20:27:43 33° W 20:32:24 10° NNW visible
24 Jan 6.4 06:55:29 10° N 07:00:36 55° E 07:05:42 10° SSE visible
24 Jan 7.2 18:12:08 10° E 18:14:03 12° ENE 18:15:57 10° ENE visible
24 Jan 5.9 19:48:57 10° SSW 19:54:06 64° W 19:59:17 10° N visible
25 Jan 7.6 06:22:28 10° NNE 06:26:58 29° E 06:31:26 10° SE visible
25 Jan 5.4 19:15:27 10° S 19:20:35 67° E 19:25:47 10° N visible
25 Jan 8.5 21:00:01 10° W 21:01:46 12° WNW 21:03:33 10° NW visible
26 Jan 8.4 05:50:12 10° NE 05:53:11 15° ENE 05:56:10 10° ESE visible
26 Jan 6.1 18:42:33 10° SSE 18:47:13 34° E 18:51:53 10° NNE visible
26 Jan 7.8 20:23:54 10° SW 20:27:57 23° W 20:32:00 10° NNW visible
27 Jan 5.7 06:55:30 10° N 07:00:44 82° E 07:05:57 10° S visible
27 Jan 6.8 18:10:29 10° ESE 18:13:57 18° E 18:17:24 10° NE visible
27 Jan 6.7 19:49:19 10° SSW 19:54:15 42° W 19:59:13 10° NNW visible
28 Jan 6.9 06:22:13 10° NNE 06:27:10 42° E 06:32:05 10° SSE visible
28 Jan 5.5 19:15:28 10° S 19:20:41 83° W 19:25:55 10° N visible
29 Jan 8.0 05:49:25 10° NNE 05:53:28 22° E 05:57:30 10° SE visible
29 Jan 5.7 18:42:12 10° SSE 18:47:13 51° E 18:52:16 10° NNE visible
29 Jan 8.3 20:25:14 10° WSW 20:28:13 15° WNW 20:31:14 10° NW visible
30 Jan 8.6 05:17:54 10° NE 05:19:38 12° ENE 05:21:23 10° E visible
30 Jan 5.5 06:55:39 10° N 07:00:49 67° W 07:05:59 10° S visible
30 Jan 6.4 18:09:36 10° SE 18:13:53 27° E 18:18:11 10° NNE visible
30 Jan 7.5 19:49:58 10° SW 19:54:27 29° W 19:58:58 10° NNW visible
31 Jan 6.0 06:22:08 10° N 06:27:19 64° E 06:32:29 10° SSE visible
31 Jan 6.2 19:15:43 10° SSW 19:20:48 55° W 19:25:56 10° N visible
